, AK

(GMT )
Denali Park

Weather History for PAIN - May, 2019

Change the Weather History Date:

Friday, May 17, 2019

  Actual Average Record
Temperature  
Mean Temperature 46 °F -  
Max Temperature 60 °F 52 °F 66 °F (2015)
Min Temperature 34 °F 27 °F 14 °F (1967)
Degree Days  
Heating Degree Days 18    
Moisture  
Dew Point 31 °F    
Average Humidity 58    
Maximum Humidity 96    
Minimum Humidity 27    
Precipitation  
Precipitation 0.00 in - - ()
Sea Level Pressure  
Sea Level Pressure 29.62 in    
Wind  
Wind Speed 3 mph (SSW)    
Max Wind Speed 8 mph    
Max Gust Speed -    
Visibility 10 miles    
Events      
Averages and records for this station are not official NWS values.
T = Trace of Precipitation, MM = Missing Value Source: NWS Daily Summary

Daily Weather History Graph

Daily Weather History Graph

Search for Another Location

Airport or City:

Astronomy

May. 17, 2019 Rise Set
Actual Time 4:39 AM AKDT 11:07 PM AKDT
Civil Twilight 2:56 AM AKDT 12:54 AM AKDT
Nautical Twilight Sun does not rise Sun does not rise
Astronomical Twilight Sun does not rise Sun does not rise
Moon 9:16 PM AKDT (5/17) 5:23 AM AKDT (5/17)
Length of Visible Light 21h 57m
Length of Day
18h 28m
Waxing Gibbous, 99% of the Moon is Illuminated
May 17
Waxing Gibbous
May 18
Full
May 26
Last Quarter
Jun 3
New
Jun 9
First Quarter

Hourly Weather History & Observations

Time (AKDT) Temp. Windchill Dew Point Humidity Pressure Visibility Wind Dir Wind Speed Gust Speed Precip Events Conditions
12:56 AM 37.9 °F 35.5 °F 36.0 °F 93% 29.58 in 10.0 mi SSW 3.5 mph - N/A   Mostly Cloudy
1:56 AM 37.9 °F 35.5 °F 36.0 °F 93% 29.58 in 10.0 mi SSW 3.5 mph - N/A   Overcast
2:56 AM 37.9 °F 35.5 °F 36.0 °F 93% 29.58 in 10.0 mi Variable 3.5 mph - N/A   Overcast
3:56 AM 36.0 °F 32.1 °F 34.0 °F 93% 29.60 in 10.0 mi SW 4.6 mph - N/A   Scattered Clouds
4:56 AM 35.1 °F - 33.1 °F 92% 29.61 in 10.0 mi Calm Calm - N/A   Overcast
5:56 AM 34.0 °F - 33.1 °F 96% 29.61 in 10.0 mi Calm Calm - N/A   Clear
6:56 AM 34.0 °F - 33.1 °F 96% 29.62 in 10.0 mi Calm Calm - N/A   Clear
7:56 AM 42.1 °F - 36.0 °F 79% 29.62 in 10.0 mi Calm Calm - N/A   Clear
8:56 AM 46.9 °F - 35.1 °F 63% 29.62 in 10.0 mi Calm Calm - N/A   Clear
9:56 AM 50.0 °F - 32.0 °F 50% 29.61 in 10.0 mi Variable 3.5 mph - N/A   Clear
10:56 AM 54.0 °F - 30.0 °F 40% 29.60 in 10.0 mi Variable 3.5 mph - N/A   Clear
11:56 AM 55.0 °F - 26.1 °F 33% 29.60 in 10.0 mi Variable 5.8 mph - N/A   Clear
12:56 PM 55.9 °F - 28.0 °F 34% 29.60 in 10.0 mi Variable 6.9 mph - N/A   Clear
1:56 PM 55.0 °F - 26.1 °F 33% 29.61 in 10.0 mi Variable 5.8 mph - N/A   Clear
2:56 PM 55.9 °F - 28.0 °F 34% 29.61 in 10.0 mi Variable 4.6 mph - N/A   Mostly Cloudy
3:56 PM 57.0 °F - 25.0 °F 29% 29.60 in 10.0 mi South 5.8 mph - N/A   Mostly Cloudy
4:56 PM 59.0 °F - 25.0 °F 27% 29.60 in 10.0 mi South 8.1 mph - N/A   Mostly Cloudy
5:56 PM 55.9 °F - 30.9 °F 39% 29.64 in 10.0 mi Variable 6.9 mph - 0.00 in   Overcast
6:56 PM 57.0 °F - 30.0 °F 36% 29.63 in 10.0 mi Variable 4.6 mph - N/A   Partly Cloudy
7:56 PM 57.0 °F - 30.0 °F 36% 29.63 in 10.0 mi Variable 5.8 mph - N/A   Clear
8:56 PM 55.0 °F - 28.9 °F 37% 29.64 in 10.0 mi South 5.8 mph - N/A   Scattered Clouds
9:56 PM 51.1 °F - 28.9 °F 43% 29.65 in 10.0 mi SSW 3.5 mph - N/A   Partly Cloudy
10:56 PM 45.0 °F 43.5 °F 30.0 °F 56% 29.68 in 10.0 mi SSW 3.5 mph - N/A   Clear
11:56 PM 43.0 °F - 30.9 °F 62% 29.70 in 10.0 mi Calm Calm - N/A   Partly Cloudy